Tel Aviv, Israel

8:42 PM IDT on April 29, 2017 (GMT +0300)
Ben Gurion

Weather History for LLBG - February, 2012

Change the Weather History Date:

Sunday, February 12, 2012

  Actual Average Record
Temperature  
Mean Temperature 60 °F -  
Max Temperature 70 °F 64 °F 78 °F (2014)
Min Temperature 51 °F 49 °F 41 °F (1997)
Degree Days  
Heating Degree Days 4    
Growing Degree Days 10 (Base 50)    
Moisture  
Dew Point 37 °F    
Average Humidity 41    
Maximum Humidity 67    
Minimum Humidity 25    
Precipitation  
Precipitation 0.00 in - - ()
Sea Level Pressure  
Sea Level Pressure 30.05 in    
Wind  
Wind Speed 7 mph ()    
Max Wind Speed 21 mph    
Max Gust Speed 32 mph    
Visibility 6.0 miles    
Events      
Averages and records for this station are not official NWS values.
T = Trace of Precipitation, MM = Missing Value Source: Averaged Metar Reports

Daily Weather History Graph

Daily Weather History Graph

Search for Another Location

Airport or City:

Trip Planner

Search our weather history database for the weather conditions in past years. The results will help you decide how hot, cold, wet, or windy it might be!

Date:

Astronomy

Feb. 12, 2012 Rise Set
Actual Time 6:26 AM IST 5:23 PM IST
Civil Twilight 6:00 AM IST 5:48 PM IST
Nautical Twilight 5:32 AM IST 6:17 PM IST
Astronomical Twilight 5:03 AM IST 6:46 PM IST
Moon 10:32 PM IST (2/12) 8:54 AM IST (2/12)
Length of Visible Light 11h 47m
Length of Day
10h 57m
Waning Gibbous, 75% of the Moon is Illuminated
Feb 12
Waning Gibbous
Feb 14
Last Quarter
Feb 22
New
Mar 1
First Quarter
Mar 8
Full

Hourly Weather History & Observations

Time (IST) Temp. Dew Point Humidity Pressure Visibility Wind Dir Wind Speed Gust Speed Precip Events Conditions
12:50 AM 51.8 °F 41.0 °F 67% 30.15 in - NNE 4.6 mph - N/A   Clear
1:50 AM 51.8 °F 41.0 °F 67% 30.12 in - North 8.1 mph - N/A   Clear
2:00 AM 52 °F 41 °F 57% 30.14 in 6 mi North 8.1 mph - -  
2:50 AM 51.8 °F 41.0 °F 67% 30.12 in - North 8.1 mph - N/A   Clear
3:50 AM 53.6 °F 39.2 °F 58% 30.09 in - North 6.9 mph - N/A   Clear
4:50 AM 55.4 °F 37.4 °F 51% 30.09 in - ENE 8.1 mph - N/A   Clear
5:50 AM 57.2 °F 35.6 °F 44% 30.09 in - North 5.8 mph - N/A   Clear
6:50 AM 59.0 °F 35.6 °F 42% 30.09 in - NNE 6.9 mph - N/A   Clear
7:50 AM 60.8 °F 35.6 °F 39% 30.09 in - ENE 4.6 mph - N/A   Clear
8:00 AM 60 °F 35 °F 27% 30.12 in 6 mi ENE 4.6 mph - -  
8:50 AM 62.6 °F 39.2 °F 42% 30.09 in - East 20.7 mph 32.2 mph N/A   Clear
9:50 AM 64.4 °F 33.8 °F 32% 30.09 in - East 17.3 mph 28.8 mph N/A   Clear
10:50 AM 64.4 °F 35.6 °F 34% 30.06 in - East 17.3 mph 28.8 mph N/A   Clear
11:50 AM 66.2 °F 33.8 °F 30% 30.06 in - ESE 16.1 mph 27.6 mph N/A   Clear
12:50 PM 69.8 °F 35.6 °F 28% 30.01 in - East 17.3 mph - N/A   Clear
1:50 PM 71.6 °F 33.8 °F 25% 30.01 in - ESE 16.1 mph - N/A   Clear
2:00 PM 71 °F 48 °F 33% 30.02 in 6 mi ESE 16.1 mph - -   Mostly Cloudy
2:50 PM 71.6 °F 35.6 °F 27% 30.01 in - East 15.0 mph - N/A   Clear
3:50 PM 71.6 °F 33.8 °F 25% 30.01 in - East 13.8 mph - N/A   Clear
4:50 PM 69.8 °F 35.6 °F 28% 30.01 in - ESE 5.8 mph - N/A   Clear
5:50 PM 66.2 °F 35.6 °F 32% 29.98 in - South 3.5 mph - N/A   Clear
6:50 PM 66.2 °F 35.6 °F 32% 30.01 in - South 2.3 mph - N/A   Clear
7:50 PM 60.8 °F 39.2 °F 45% 30.01 in - Variable 2.3 mph - N/A   Clear
8:00 PM 61 °F 39 °F 32% 30.02 in 6 mi 2.3 mph - -   Partly Cloudy
8:50 PM 64.4 °F 35.6 °F 34% 30.01 in - Variable 1.2 mph - N/A   Clear
9:50 PM 62.6 °F 35.6 °F 37% 30.01 in - SE 1.2 mph - N/A   Clear
10:50 PM 55.4 °F 39.2 °F 54% 30.01 in - SW 2.3 mph - N/A   Clear
11:50 PM 55.4 °F 37.4 °F 51% 30.01 in - Variable 1.2 mph - N/A   Clear